This is the latest recevied weather packets stored in our database for station/object N7WGJ. If no packets are shown the sender has not sent any weather packets the latest 10 day(s).
| Time | Temp. | Humidity | Pressure | Rain* | Wind** | Luminosity | Snow |
|---|---|---|---|---|---|---|---|
| 1788391897 | 15.56° C | 92% | 1004.9 hPa | 0.51 mm | - | - | - |
| 1788391297 | 15.56° C | 92% | 1004.8 hPa | 1.02 mm | - | - | - |
| 1788390692 | 15° C | 92% | 1004.7 hPa | 1.27 mm | - | - | - |
| 1788390115 | 15° C | 92% | 1004.7 hPa | 1.27 mm | - | - | - |
| 1788389504 | 15° C | 93% | 1004.6 hPa | 1.78 mm | - | - | - |
| 1788388904 | 15° C | 93% | 1004.6 hPa | 1.78 mm | - | - | - |
| 1788388302 | 15° C | 93% | 1004.6 hPa | 1.78 mm | - | - | - |
| 1788387702 | 15° C | 92% | 1004.7 hPa | 1.27 mm | - | - | - |
| 1788387104 | 15° C | 92% | 1004.7 hPa | 1.27 mm | - | - | - |
| 1788386503 | 15° C | 92% | 1004.8 hPa | 1.78 mm | - | - | - |
| 1788385894 | 15° C | 92% | 1004.8 hPa | 1.27 mm | - | - | - |
| 1788385295 | 15° C | 91% | 1004.9 hPa | 1.27 mm | - | - | - |
| 1788384697 | 15° C | 91% | 1004.9 hPa | 1.27 mm | - | - | - |
| 1788384100 | 15.56° C | 91% | 1005 hPa | 1.27 mm | - | - | - |
| 1788383502 | 15.56° C | 90% | 1004.9 hPa | 1.27 mm | - | - | - |
| 1788382898 | 15.56° C | 89% | 1005 hPa | 1.02 mm | - | - | - |
| 1788382292 | 15.56° C | 87% | 1005 hPa | 0.76 mm | - | - | - |
| 1788381694 | 16.11° C | 85% | 1005.1 hPa | 0.51 mm | - | - | - |
| 1788381094 | 16.11° C | 82% | 1005.1 hPa | 0.51 mm | - | - | - |
| 1788380493 | 16.67° C | 80% | 1005.1 hPa | 0.25 mm | - | - | - |
| 1788379898 | 16.67° C | 79% | 1005.1 hPa | 0 mm | - | - | - |
| 1788379300 | 17.22° C | 77% | 1005.3 hPa | 0 mm | - | - | - |
| 1788378696 | 17.22° C | 76% | 1005.4 hPa | 0 mm | - | - | - |
| 1788378096 | 17.22° C | 79% | 1005.3 hPa | 0 mm | - | - | - |
| 1788377501 | 17.22° C | 80% | 1005.5 hPa | 0.76 mm | - | - | - |
* Rain latest hour (hover to see other rain measurements)
** Current wind speed in m/s (hover to see current wind gust speed)